PHOENIX (42706 NORAD) Tracking and Keplerian Element Data

This shows tracking and keplerian element data for the satellite.

Feedback or suggestion? Click here.




ElementValue
Catalog42706
NamePHOENIX
Epoch Orbit9095
Epoch Day352.6682913
Epoch Year2018
RAAN129.8445
Inclination51.6277
Eccentricity0.0001411
Argument of Perigee194.9983
Mean Anonmoly165.0977
Mean Motion15.79262074
Decay Rate0.00041883
L11 42706U 98067LP 18352.66829130 .00041883 00000-0 23062-3 0 9993
L22 42706 51.6277 129.8445 0001411 194.9983 165.0977 15.79262074 90953

Live tracking and technical data element details for PHOENIX (NORAD 42706). PHOENIX can be tracked NOW for your location showing map with azimuth and elevation plus other details from your city location.

Track the satellite on the map from your city or location and see movement details for azimuth, elevation, latitude, longitude, range, height, and movement on the map or in text.







IsCatalogInMostPopularTable: catalog: 42706, numindb: 159
Update: records affected: 1



GetName: 42706 PHOENIX

Hit Count: updated at: Wed, 19 Dec 2018 15:37:28 GMT